CW9444 Weather Reports


Display with metric or nautical units.
time (UTC)temp
F
wind
direction
speed
MPH
gust
MPH
rain 1hr
in
rain 24hr
in
rain mn
in
humidity
%
barometer
mb
20190323040031 62 285 0.0 0.0 0.00 0.00 0.00 59 1017.4
20190323033204 63 285 0.0 0.0 0.00 0.00 0.00 56 1017.6
20190323031557 65 285 0.0 1.0 0.00 0.00 0.00 52 1017.4
20190323030155 65 286 0.0 0.0 0.00 0.00 0.00 51 1017.3
20190323024624 66 286 0.0 0.0 0.00 0.00 0.00 50 1017.1
20190323023129 66 286 0.0 0.0 0.00 0.00 0.00 51 1017.1
20190323021519 67 286 0.0 0.0 0.00 0.00 0.00 47 1016.9
20190323020214 68 286 0.0 1.0 0.00 0.00 0.00 44 1016.7
20190323014529 68 286 0.0 0.0 0.00 0.00 0.00 45 1016.4
20190323013152 68 286 0.0 0.0 0.00 0.00 0.00 49 1016.3
20190323011705 69 286 0.0 0.0 0.00 0.00 0.00 48 1016.1
20190323010239 70 286 0.0 0.0 0.00 0.00 0.00 46 1016.0
20190323004731 71 286 0.0 0.0 0.00 0.00 0.00 45 1015.8
20190323003048 72 286 0.0 0.0 0.00 0.00 0.00 44 1015.6
20190323001555 73 286 0.0 0.0 0.00 0.00 0.00 40 1015.6
20190323000051 74 286 0.0 0.0 0.00 0.00 0.00 37 1015.6
20190322234622 75 286 0.0 0.0 0.00 0.00 0.00 36 1015.5
20190322194600 75 300 0.0 7.0 0.00 0.00 0.00 41 1017.8
20190322193124 76 276 0.0 5.0 0.00 0.00 0.00 37 1018.1
20190322191523 74 281 0.0 4.0 0.00 0.00 0.00 43 1018.4
20190322190112 75 276 0.0 4.0 0.00 0.00 0.00 40 1018.6
20190322183051 75 209 0.0 3.0 0.00 0.00 0.00 41 1018.9
20190322181742 74 212 0.0 3.0 0.00 0.00 0.00 47 1019.1
20190322181515 74 212 0.0 3.0 0.00 0.00 0.00 44 1019.1
20190322180007 74 209 1.0 3.0 0.00 0.00 0.00 42 1019.4
20190322173129 72 322 0.0 2.0 0.00 0.00 0.00 51 1019.9
20190322171900 69 322 0.0 2.0 0.00 0.00 0.00 57 1020.1
20190322170058 68 322 0.0 3.0 0.00 0.00 0.00 59 1020.3
20190322164656 67 322 0.0 1.0 0.00 0.00 0.00 62 1020.7
20190322163103 66 322 0.0 2.0 0.00 0.00 0.00 63 1020.8
20190322161659 65 322 0.0 1.0 0.00 0.00 0.00 68 1020.9
20190322160134 64 322 0.0 1.0 0.00 0.00 0.00 70 1021.1
20190322154637 62 322 0.0 2.0 0.00 0.00 0.00 74 1021.2
20190322153042 61 322 0.0 0.0 0.00 0.00 0.00 79 1021.2
20190322151648 60 322 0.0 0.0 0.00 0.00 0.00 82 1021.2
20190322150012 59 27 0.0 0.0 0.00 0.00 0.00 82 1021.2
20190322143138 56 337 0.0 0.0 0.00 0.00 0.00 88 1021.0
20190322141804 54 337 0.0 1.0 0.00 0.00 0.00 90 1020.8
20190322140120 53 337 0.0 0.0 0.00 0.00 0.00 92 1020.5
20190322134515 51 337 0.0 0.0 0.00 0.00 0.00 93 1020.4
20190322133052 49 337 0.0 0.0 0.00 0.00 0.00 94 1020.1
20190322131848 47 337 0.0 0.0 0.00 0.00 0.00 93 1020.1
20190322130040 47 337 0.0 0.0 0.00 0.00 0.00 92 1020.0
20190322123049 47 337 0.0 0.0 0.00 0.00 0.00 92 1019.8
20190322121626 47 337 0.0 0.0 0.00 0.00 0.00 92 1019.7
20190322120003 47 337 0.0 0.0 0.00 0.00 0.00 92 1019.6
20190322114615 47 337 0.0 0.0 0.00 0.00 0.00 92 1019.5
20190322113031 47 337 0.0 0.0 0.00 0.00 0.00 92 1019.5
20190322111521 47 337 0.0 0.0 0.00 0.00 0.00 92 1019.2
20190322110039 47 337 0.0 0.0 0.00 0.00 0.00 92 1019.1
20190322104511 47 337 0.0 0.0 0.00 0.00 0.00 92 1019.1
20190322103151 47 337 0.0 0.0 0.00 0.00 0.00 92 1019.0
20190322101623 47 337 0.0 0.0 0.00 0.00 0.00 92 1019.1
20190322100114 47 337 0.0 0.0 0.00 0.00 0.00 92 1019.0
20190322094633 48 337 0.0 0.0 0.00 0.00 0.00 92 1018.9
20190322093018 48 337 0.0 0.0 0.00 0.00 0.00 92 1019.0
20190322091506 47 337 0.0 0.0 0.00 0.00 0.00 92 1018.9
20190322090030 47 337 0.0 0.0 0.00 0.00 0.00 91 1019.1
20190322083223 47 337 0.0 0.0 0.00 0.00 0.00 91 1019.2
20190322081557 47 337 0.0 0.0 0.00 0.00 0.00 91 1019.0
20190322080130 47 337 0.0 0.0 0.00 0.00 0.00 91 1019.2
20190322074537 48 337 0.0 0.0 0.00 0.00 0.00 91 1019.3
20190322073026 48 337 0.0 0.0 0.00 0.00 0.00 91 1019.2
20190322071652 48 337 0.0 0.0 0.00 0.00 0.00 91 1019.0
20190322070135 48 337 0.0 0.0 0.00 0.00 0.00 91 1019.1
20190322064541 49 337 0.0 0.0 0.00 0.00 0.00 91 1019.0
20190322061546 50 337 0.0 0.0 0.00 0.00 0.00 90 1019.1
20190322060106 50 337 0.0 0.0 0.00 0.00 0.00 89 1019.1
20190322054555 50 337 0.0 0.0 0.00 0.00 0.00 87 1019.1
20190322053048 51 337 0.0 0.0 0.00 0.00 0.00 86 1019.3
20190322051645 51 337 0.0 0.0 0.00 0.00 0.00 85 1019.3
20190322050134 51 337 0.0 0.0 0.00 0.00 0.00 83 1019.3
20190322044613 52 337 0.0 0.0 0.00 0.00 0.00 82 1019.3
20190322043039 52 337 0.0 0.0 0.00 0.00 0.00 80 1019.3